Find Starlink 32264

NORAD ID: 61642 Int'l Des: 2024-191 Owner: SPXS Country: US Constellation: starlink operational
LEOCIRCULAR

实时位置

正在加载3D地球...

关于 Starlink 32264

正在加载描述...

即将过境

Passes for default location (London). Set your location on the main map for personalized predictions.

高度历史

Loading altitude history...

两行轨道根数

1 61642U 24191X 26125.19346469 .00180752 00000-0 37033-2 0 9995
2 61642 42.9946 193.1648 0013247 49.3506 310.8502 15.44598193 86205
Epoch: May 5, 2026 • Age: 5 hours

当前状态

高度 436.1 km
速度 7.65 km/s
星下点 -21.46°S, 166.63°E
发射日期 Oct 23, 2024
运行时间 1.5 years
类型 internet

技术详情

分类 Payload
质量 730.00 kg
干质量 700.00 kg
总质量 730.00 kg
长度 0.30 m
直径 4.10 m
跨度 29.00 m
形状 Box + pan
制造商 SPXS
平台类型 Starlink V2M
阶段状态 In Orbit
所有者/国家 SPXS/US

Most Searched